Location: Omaha
(41.2590°N, 95.9380°W)
Time: 09:05:59
(UTC-06:00)

Tiangong 2 - Pass Details

Date: 09 October 2017
Orbit: 386 x 390 km, 42.8° (Epoch: 16 December)

Event Time Altitude Azimuth Distance (km) Brightness Sun altitude
Exits shadow 06:59:24 - 251° (WSW) 1,663 3.7 -6.4°
Reaches altitude 10° 07:00:00 10° 251° (WSW) 1,421 3.4 -6.3°
Maximum altitude 07:03:12 80° 165° (SSE) 402 1.2 -5.7°
Drops below altitude 10° 07:06:25 10° 77° (ENE) 1,428 5.5 -5.1°
Sets 07:08:31 0° 77° (ENE) 2,286 6.7 -4.7°
